ICE547 LFPG-BIKF

Flight info

Callsign ICE547
Flight time N/A
Altitude 38000
Route ATREX DCT VESAN DCT RATUK DCT SOVAT L613 LEHOC DCT INPIP DCT GOW DCT EVBEV DCT BALIX/M079F380 DCT BREKI DCT BASLU BASLU3H
Aircraft B38M/M-SDE1FGHILORVWXY/HB1

Departure

Time 2026-05-09 11:17
Airport Charles de Gaulle International Airport (LFPG)

Arrival

Time N/A
Airport Keflavik International Airport (BIKF)
Time Latitude Longitude Altitude Speed Heading
2026-05-09 10:54 49.01483 2.53764 350 ft 0 kts 155°
2026-05-09 11:07 49.01489 2.53760 350 ft 4 kts 156°
2026-05-09 11:07 49.01515 2.53748 350 ft 4 kts 172°
2026-05-09 11:08 49.01541 2.53746 349 ft 4 kts 180°
2026-05-09 11:08 49.01562 2.53743 349 ft 4 kts 172°
2026-05-09 11:08 49.01589 2.53737 357 ft 4 kts 172°
2026-05-09 11:08 49.01616 2.53733 356 ft 4 kts 178°
2026-05-09 11:09 49.01639 2.53733 348 ft 4 kts 182°
2026-05-09 11:09 49.01652 2.53734 348 ft 4 kts 187°
2026-05-09 11:09 49.01677 2.53742 357 ft 4 kts 199°
2026-05-09 11:09 49.01699 2.53761 349 ft 2 kts 222°
2026-05-09 11:10 49.01701 2.53763 349 ft 2 kts 223°
2026-05-09 11:13 49.01693 2.53752 348 ft 3 kts 223°
2026-05-09 11:13 49.01653 2.53704 348 ft 14 kts 214°
2026-05-09 11:13 49.01644 2.53536 358 ft 22 kts 309°
2026-05-09 11:13 49.01677 2.53335 363 ft 20 kts 265°
2026-05-09 11:14 49.01664 2.53119 357 ft 21 kts 268°
2026-05-09 11:14 49.01653 2.52886 357 ft 23 kts 265°
2026-05-09 11:14 49.01674 2.52651 361 ft 24 kts 317°
2026-05-09 11:14 49.01721 2.52420 357 ft 25 kts 261°
2026-05-09 11:15 49.01716 2.52172 361 ft 21 kts 297°
2026-05-09 11:15 49.01854 2.52127 357 ft 22 kts 356°
2026-05-09 11:15 49.02010 2.52111 358 ft 24 kts 356°
2026-05-09 11:15 49.02106 2.52156 361 ft 12 kts 70°
2026-05-09 11:16 49.02122 2.52409 357 ft 53 kts 85°
2026-05-09 11:16 49.02173 2.53347 356 ft 122 kts 85°
2026-05-09 11:16 49.02263 2.54926 403 ft 170 kts 85°
2026-05-09 11:16 49.02364 2.56826 924 ft 187 kts 86°
2026-05-09 11:17 49.02493 2.58837 1780 ft 192 kts 83°
2026-05-09 11:17 49.02706 2.60822 2736 ft 188 kts 81°
2026-05-09 11:17 49.02897 2.62830 3412 ft 200 kts 87°
2026-05-09 11:17 49.02949 2.65075 3845 ft 224 kts 89°
2026-05-09 11:18 49.03020 2.67537 4445 ft 238 kts 88°
2026-05-09 11:18 49.03113 2.70072 5387 ft 240 kts 88°
2026-05-09 11:18 49.03292 2.72659 6125 ft 255 kts 78°
2026-05-09 11:18 49.04100 2.75167 6651 ft 277 kts 47°
2026-05-09 11:19 49.05713 2.76712 7657 ft 278 kts 20°
2026-05-09 11:19 49.07663 2.77026 8371 ft 291 kts 350°
2026-05-09 11:19 49.09558 2.75969 9254 ft 293 kts 335°
2026-05-09 11:19 49.11482 2.74845 10020 ft 299 kts 340°
2026-05-09 11:20 49.13471 2.73765 10653 ft 311 kts 340°
2026-05-09 11:20 49.15572 2.72633 11082 ft 329 kts 339°
2026-05-09 11:20 49.17771 2.71445 11639 ft 341 kts 339°
2026-05-09 11:20 49.20010 2.70218 12482 ft 342 kts 339°
2026-05-09 11:21 49.22261 2.68962 13263 ft 346 kts 338°
2026-05-09 11:21 49.24533 2.67689 14018 ft 350 kts 338°
2026-05-09 11:21 49.26830 2.66399 14768 ft 353 kts 338°
2026-05-09 11:21 49.29150 2.65090 15513 ft 357 kts 338°
2026-05-09 11:22 49.31493 2.63767 16206 ft 361 kts 338°
2026-05-09 11:22 49.33860 2.62429 16887 ft 364 kts 338°
2026-05-09 11:22 49.36248 2.61077 17548 ft 368 kts 338°
2026-05-09 11:22 49.38660 2.59710 18202 ft 371 kts 338°
2026-05-09 11:23 49.41091 2.58329 18813 ft 374 kts 338°
2026-05-09 11:23 49.43546 2.56933 19360 ft 379 kts 338°
2026-05-09 11:23 49.45997 2.55539 19940 ft 382 kts 338°
2026-05-09 11:23 49.48501 2.54112 20481 ft 386 kts 338°
2026-05-09 11:24 49.51026 2.52672 21019 ft 390 kts 338°
2026-05-09 11:24 49.53582 2.51211 21539 ft 393 kts 338°
2026-05-09 11:24 49.56157 2.49739 22046 ft 397 kts 339°
2026-05-09 11:24 49.58759 2.48248 22528 ft 401 kts 339°
2026-05-09 11:25 49.61385 2.46742 23009 ft 404 kts 339°
2026-05-09 11:25 49.64031 2.45222 23482 ft 408 kts 339°
2026-05-09 11:25 49.66710 2.43682 23925 ft 412 kts 339°
2026-05-09 11:25 49.69402 2.42132 24378 ft 415 kts 339°
2026-05-09 11:26 49.72124 2.40562 24821 ft 419 kts 339°
2026-05-09 11:26 49.74863 2.38981 25237 ft 422 kts 339°
2026-05-09 11:26 49.77628 2.37382 25629 ft 426 kts 339°
2026-05-09 11:26 49.80412 2.35780 26055 ft 428 kts 339°
2026-05-09 11:27 49.83210 2.34166 26438 ft 432 kts 339°
2026-05-09 11:27 49.86033 2.32536 26827 ft 434 kts 339°
2026-05-09 11:27 49.88874 2.30894 27192 ft 437 kts 339°
2026-05-09 11:27 49.91734 2.29239 27557 ft 440 kts 339°
2026-05-09 11:28 49.94617 2.27567 27907 ft 443 kts 339°
2026-05-09 11:28 49.97514 2.25886 28262 ft 446 kts 339°
2026-05-09 11:28 50.00424 2.24195 28595 ft 449 kts 339°
2026-05-09 11:28 50.03360 2.22487 28938 ft 451 kts 339°
2026-05-09 11:29 50.06310 2.20768 29312 ft 453 kts 339°
2026-05-09 11:29 50.09262 2.19046 29635 ft 456 kts 339°
2026-05-09 11:29 50.12203 2.17328 29937 ft 458 kts 339°
2026-05-09 11:29 50.15197 2.15577 30219 ft 461 kts 339°
2026-05-09 11:30 50.18205 2.13815 30561 ft 462 kts 339°
2026-05-09 11:30 50.21220 2.12047 30864 ft 464 kts 339°
2026-05-09 11:30 50.24255 2.10264 31152 ft 467 kts 339°
2026-05-09 11:30 50.27296 2.08477 31460 ft 468 kts 339°
2026-05-09 11:31 50.30356 2.06675 31745 ft 470 kts 339°
2026-05-09 11:31 50.33417 2.04870 32024 ft 472 kts 339°
2026-05-09 11:31 50.36468 2.02915 32273 ft 474 kts 330°
2026-05-09 11:31 50.39127 1.99934 32605 ft 470 kts 316°
2026-05-09 11:32 50.41571 1.96518 32903 ft 472 kts 319°
2026-05-09 11:32 50.44090 1.93189 33119 ft 474 kts 318°
2026-05-09 11:32 50.46596 1.89821 33496 ft 473 kts 317°
2026-05-09 11:32 50.49080 1.86445 33834 ft 473 kts 317°
2026-05-09 11:33 50.51561 1.83055 34189 ft 472 kts 317°
2026-05-09 11:33 50.54033 1.79671 34526 ft 471 kts 317°
2026-05-09 11:33 50.58958 1.72913 35182 ft 469 kts 317°
2026-05-09 11:34 50.61413 1.69536 35490 ft 468 kts 317°
2026-05-09 11:34 50.63859 1.66167 35801 ft 466 kts 317°
2026-05-09 11:34 50.66298 1.62801 36091 ft 465 kts 317°
2026-05-09 11:34 50.68725 1.59445 36355 ft 465 kts 317°
2026-05-09 11:35 50.71153 1.56083 36611 ft 464 kts 316°
2026-05-09 11:35 50.73573 1.52727 36869 ft 462 kts 316°
2026-05-09 11:35 50.75982 1.49382 37203 ft 459 kts 316°
2026-05-09 11:35 50.78367 1.46069 37515 ft 456 kts 316°
2026-05-09 11:36 50.80742 1.42765 37786 ft 453 kts 316°
2026-05-09 11:36 50.83104 1.39474 38012 ft 452 kts 316°
2026-05-09 11:36 50.85462 1.36185 38113 ft 452 kts 316°
2026-05-09 11:36 50.87819 1.32892 38094 ft 450 kts 316°
2026-05-09 11:37 50.92500 1.26338 38095 ft 449 kts 316°
2026-05-09 11:37 50.97181 1.19768 38100 ft 449 kts 316°
2026-05-09 11:38 51.01854 1.13188 38102 ft 449 kts 316°
2026-05-09 11:38 51.06562 1.06641 38090 ft 451 kts 321°
2026-05-09 11:39 51.11675 1.00962 38099 ft 452 kts 323°
2026-05-09 11:40 51.19446 0.92334 38107 ft 452 kts 323°
2026-05-09 11:40 51.24568 0.86641 38109 ft 452 kts 323°
2026-05-09 11:41 51.29724 0.80893 38123 ft 453 kts 323°
2026-05-09 11:41 51.34888 0.75121 38119 ft 453 kts 322°
2026-05-09 11:42 51.39210 0.70276 38127 ft 453 kts 322°
2026-05-09 11:42 51.44337 0.64515 38128 ft 453 kts 322°
2026-05-09 11:43 51.49495 0.58703 38127 ft 453 kts 322°
2026-05-09 11:43 51.54642 0.52888 38127 ft 453 kts 322°
2026-05-09 11:44 51.59800 0.47043 38128 ft 453 kts 322°
2026-05-09 11:44 51.64951 0.41189 38127 ft 453 kts 322°
2026-05-09 11:45 51.70099 0.35323 38126 ft 453 kts 322°
2026-05-09 11:45 51.75275 0.29407 38129 ft 453 kts 322°
2026-05-09 11:46 51.80392 0.23543 38130 ft 454 kts 322°
2026-05-09 11:46 51.85568 0.17594 38128 ft 454 kts 322°
2026-05-09 11:47 51.90681 0.11699 38129 ft 454 kts 322°
2026-05-09 11:47 51.95847 0.05729 38129 ft 454 kts 322°
2026-05-09 11:48 52.00989 -0.00228 38128 ft 454 kts 322°
2026-05-09 11:48 52.06452 -0.05414 38131 ft 458 kts 328°
2026-05-09 11:49 52.12023 -0.10337 38131 ft 459 kts 329°
2026-05-09 11:49 52.17636 -0.15265 38126 ft 458 kts 329°
2026-05-09 11:50 52.23249 -0.20208 38129 ft 459 kts 329°
2026-05-09 11:50 52.28861 -0.25161 38128 ft 458 kts 329°
2026-05-09 11:51 52.34466 -0.30124 38132 ft 458 kts 328°
2026-05-09 11:51 52.40073 -0.35103 38128 ft 458 kts 328°
2026-05-09 11:52 52.45673 -0.40089 38130 ft 458 kts 328°
2026-05-09 11:52 52.51269 -0.45087 38126 ft 458 kts 328°
2026-05-09 11:53 52.56865 -0.50100 38130 ft 458 kts 328°
2026-05-09 11:53 52.62457 -0.55124 38126 ft 458 kts 328°
2026-05-09 11:54 52.68051 -0.60164 38128 ft 458 kts 328°
2026-05-09 11:54 52.73640 -0.65214 38137 ft 458 kts 328°
2026-05-09 11:55 52.79227 -0.70277 38150 ft 458 kts 328°
2026-05-09 11:56 52.95952 -0.85525 38147 ft 457 kts 328°
2026-05-09 11:57 53.01516 -0.90627 38165 ft 457 kts 328°
2026-05-09 11:57 53.07080 -0.95741 38165 ft 457 kts 327°
2026-05-09 11:58 53.12639 -1.00866 38169 ft 456 kts 327°
2026-05-09 11:58 53.18183 -1.05992 38159 ft 455 kts 327°
2026-05-09 11:59 53.23723 -1.11128 38154 ft 455 kts 327°
2026-05-09 11:59 53.29220 -1.16243 38133 ft 455 kts 327°
2026-05-09 12:00 53.34740 -1.21394 38127 ft 454 kts 327°
2026-05-09 12:00 53.40267 -1.26564 38112 ft 454 kts 327°
2026-05-09 12:01 53.45778 -1.31746 38113 ft 454 kts 327°
2026-05-09 12:01 53.51285 -1.36940 38108 ft 454 kts 327°
2026-05-09 12:02 53.56783 -1.42141 38114 ft 453 kts 326°
2026-05-09 12:02 53.62274 -1.47350 38130 ft 453 kts 326°
2026-05-09 12:03 53.67754 -1.52565 38143 ft 452 kts 326°
2026-05-09 12:03 53.73208 -1.57851 38154 ft 450 kts 321°
2026-05-09 12:03 53.75554 -1.61227 38191 ft 440 kts 310°
2026-05-09 12:04 53.77818 -1.64757 38160 ft 444 kts 314°
2026-05-09 12:04 53.82415 -1.71731 38185 ft 444 kts 313°
2026-05-09 12:05 53.86981 -1.78760 38188 ft 444 kts 313°
2026-05-09 12:05 53.91534 -1.85798 38180 ft 443 kts 313°
2026-05-09 12:06 53.96082 -1.92850 38185 ft 443 kts 313°
2026-05-09 12:06 54.00628 -1.99919 38192 ft 443 kts 313°
2026-05-09 12:06 54.03086 -2.03132 38174 ft 449 kts 326°
2026-05-09 12:07 54.05824 -2.05690 38196 ft 450 kts 324°
2026-05-09 12:07 54.11192 -2.11181 38203 ft 451 kts 325°
2026-05-09 12:08 54.16581 -2.16612 38188 ft 450 kts 325°
2026-05-09 12:08 54.21978 -2.22053 38201 ft 450 kts 325°
2026-05-09 12:09 54.27367 -2.27500 38202 ft 450 kts 325°
2026-05-09 12:09 54.32718 -2.32927 38204 ft 450 kts 325°
2026-05-09 12:10 54.43476 -2.43887 38221 ft 449 kts 324°
2026-05-09 12:11 54.48863 -2.49400 38200 ft 453 kts 325°
2026-05-09 12:11 54.54317 -2.55000 38212 ft 460 kts 324°
2026-05-09 12:12 54.59802 -2.60649 38213 ft 459 kts 324°
2026-05-09 12:12 54.65284 -2.66313 38218 ft 459 kts 324°
2026-05-09 12:13 54.70752 -2.71980 38210 ft 458 kts 324°